| time (UTC) | temp F | wind direction | speed knots | gust knots | rain 1hr in | rain 24hr in | rain mn in | humidity % | barometer mb |
| 20260505223005 | 43 | 227 | 2.6 | 10.4 | 0.07 | 0.16 | 0.16 | 87 | 1004.5 |
| 20260505221505 | 41 | 235 | 2.6 | 7.8 | 0.06 | 0.15 | 0.15 | 87 | 1004.5 |
| 20260505220004 | 42 | 235 | 0.0 | 7.8 | 0.05 | 0.14 | 0.14 | 83 | 1004.8 |
| 20260505214504 | 46 | 231 | 3.5 | 11.3 | 0.01 | 0.10 | 0.10 | 77 | 1004.7 |
| 20260505213003 | 46 | 162 | 6.1 | 8.7 | 0.01 | 0.09 | 0.09 | 79 | 1004.0 |
| 20260505211503 | 46 | 234 | 4.3 | 10.4 | 0.07 | 0.09 | 0.09 | 81 | 1004.3 |
| 20260505210001 | 45 | 178 | 4.3 | 7.8 | 0.09 | 0.09 | 0.09 | 88 | 1004.8 |
| 20260505204550 | 42 | 179 | 0.9 | 7.8 | 0.09 | 0.09 | 0.09 | 88 | 1005.1 |
| 20260505203048 | 41 | 202 | 6.1 | 10.4 | 0.08 | 0.08 | 0.08 | 85 | 1005.4 |
| 20260505201544 | 47 | 193 | 7.0 | 11.3 | 0.03 | 0.03 | 0.03 | 69 | 1005.3 |
| 20260505200056 | 49 | 255 | 3.5 | 11.3 | 0.00 | 0.00 | 0.00 | 71 | 1004.0 |
| 20260505194544 | 53 | 200 | 6.1 | 11.3 | 0.00 | 0.00 | 0.00 | 56 | 1004.2 |
| 20260505193041 | 52 | 231 | 6.1 | 12.2 | 0.00 | 0.00 | 0.00 | 59 | 1003.8 |
| 20260505191546 | 54 | 181 | 7.0 | 17.4 | 0.00 | 0.00 | 0.00 | 52 | 1003.7 |
| 20260505190040 | 54 | 178 | 6.1 | 11.3 | 0.00 | 0.00 | 0.00 | 51 | 1004.0 |
| 20260505184529 | 54 | 359 | 7.8 | 13.9 | 0.00 | 0.00 | 0.00 | 51 | 1004.2 |
| 20260505183029 | 53 | 192 | 6.1 | 11.3 | 0.00 | 0.00 | 0.00 | 58 | 1004.2 |
| 20260505181521 | 51 | 156 | 6.1 | 11.3 | 0.00 | 0.00 | 0.00 | 65 | 1004.4 |
| 20260505180022 | 50 | 191 | 4.3 | 11.3 | 0.00 | 0.00 | 0.00 | 67 | 1004.7 |
| 20260505174515 | 49 | 239 | 6.1 | 10.4 | 0.00 | 0.00 | 0.00 | 71 | 1004.7 |
| 20260505173014 | 48 | 224 | 3.5 | 12.2 | 0.00 | 0.00 | 0.00 | 76 | 1004.9 |
| 20260505171512 | 48 | 192 | 6.1 | 11.3 | 0.00 | 0.00 | 0.00 | 74 | 1004.8 |
| 20260505170010 | 48 | 186 | 5.2 | 8.7 | 0.00 | 0.00 | 0.00 | 72 | 1004.5 |
| 20260505164605 | 47 | 190 | 4.3 | 9.6 | 0.00 | 0.00 | 0.00 | 72 | 1004.4 |
| 20260505163057 | 48 | 182 | 4.3 | 8.7 | 0.00 | 0.00 | 0.00 | 73 | 1004.3 |
| 20260505161604 | 47 | 250 | 5.2 | 13.9 | 0.00 | 0.00 | 0.00 | 74 | 1004.4 |
| 20260505153059 | 45 | 205 | 3.5 | 9.6 | 0.00 | 0.00 | 0.00 | 80 | 1004.3 |
| 20260505151551 | 44 | 205 | 5.2 | 11.3 | 0.00 | 0.00 | 0.00 | 82 | 1004.4 |
| 20260505124521 | 41 | 193 | 0.0 | 1.7 | 0.00 | 0.00 | 0.00 | 87 | 1003.4 |
| 20260505123016 | 41 | 193 | 0.9 | 4.3 | 0.00 | 0.00 | 0.00 | 86 | 1003.4 |
| 20260505121518 | 42 | 193 | 0.9 | 4.3 | 0.00 | 0.00 | 0.00 | 87 | 1003.4 |
| 20260505120028 | 41 | 193 | 2.6 | 4.3 | 0.00 | 0.00 | 0.00 | 87 | 1003.6 |
| 20260505114512 | 41 | 194 | 1.7 | 6.1 | 0.00 | 0.00 | 0.00 | 86 | 1003.9 |
| 20260505113009 | 42 | 194 | 1.7 | 8.7 | 0.00 | 0.00 | 0.00 | 85 | 1003.8 |
| 20260505111556 | 42 | 194 | 2.6 | 7.8 | 0.00 | 0.00 | 0.00 | 84 | 1004.2 |
| 20260505101551 | 44 | 219 | 4.3 | 9.6 | 0.00 | 0.00 | 0.00 | 76 | 1004.3 |
| 20260505100043 | 44 | 191 | 3.5 | 8.7 | 0.00 | 0.00 | 0.00 | 72 | 1004.2 |
| 20260505094541 | 45 | 229 | 0.9 | 7.0 | 0.00 | 0.00 | 0.00 | 69 | 1004.0 |
| 20260505093037 | 45 | 228 | 3.5 | 8.7 | 0.00 | 0.00 | 0.00 | 68 | 1004.1 |
| 20260505091524 | 46 | 170 | 4.3 | 11.3 | 0.00 | 0.00 | 0.00 | 68 | 1004.3 |
| 20260505090023 | 46 | 170 | 1.7 | 8.7 | 0.00 | 0.00 | 0.00 | 67 | 1004.6 |
| 20260505084524 | 46 | 170 | 0.9 | 8.7 | 0.00 | 0.00 | 0.00 | 66 | 1004.5 |
| 20260505083023 | 46 | 170 | 3.5 | 12.2 | 0.00 | 0.00 | 0.00 | 66 | 1004.7 |
| 20260505081518 | 47 | 177 | 3.5 | 7.0 | 0.00 | 0.00 | 0.00 | 65 | 1004.9 |
| 20260505080018 | 47 | 177 | 2.6 | 7.0 | 0.00 | 0.00 | 0.00 | 65 | 1004.7 |
| 20260505074517 | 47 | 198 | 3.5 | 9.6 | 0.00 | 0.00 | 0.00 | 64 | 1004.2 |
| 20260505073017 | 47 | 181 | 3.5 | 11.3 | 0.00 | 0.00 | 0.00 | 63 | 1003.9 |
| 20260505071513 | 47 | 189 | 6.1 | 10.4 | 0.00 | 0.00 | 0.00 | 62 | 1003.7 |
| 20260505070002 | 47 | 189 | 4.3 | 9.6 | 0.00 | 0.00 | 0.00 | 63 | 1003.7 |
| 20260505064600 | 48 | 181 | 1.7 | 9.6 | 0.00 | 0.00 | 0.00 | 63 | 1003.7 |
| 20260505063057 | 48 | 185 | 3.5 | 11.3 | 0.00 | 0.00 | 0.00 | 63 | 1003.8 |
| 20260505061555 | 48 | 188 | 3.5 | 9.6 | 0.00 | 0.00 | 0.00 | 62 | 1004.2 |
| 20260505060053 | 48 | 183 | 1.7 | 9.6 | 0.00 | 0.00 | 0.00 | 61 | 1004.2 |
| 20260505054551 | 49 | 170 | 4.3 | 10.4 | 0.00 | 0.00 | 0.00 | 60 | 1004.2 |
| 20260505053048 | 49 | 196 | 4.3 | 10.4 | 0.00 | 0.00 | 0.00 | 59 | 1004.6 |
| 20260505051530 | 49 | 214 | 2.6 | 12.2 | 0.00 | 0.00 | 0.00 | 57 | 1004.7 |
| 20260505041520 | 50 | 195 | 3.5 | 8.7 | 0.00 | 0.00 | 0.00 | 50 | 1004.0 |
| 20260505040013 | 51 | 170 | 1.7 | 7.0 | 0.00 | 0.00 | 0.00 | 50 | 1004.4 |
| 20260505034512 | 51 | 187 | 4.3 | 10.4 | 0.00 | 0.00 | 0.00 | 50 | 1004.2 |
| 20260505033013 | 51 | 170 | 5.2 | 10.4 | 0.00 | 0.00 | 0.00 | 50 | 1004.1 |
| 20260505031510 | 51 | 198 | 4.3 | 9.6 | 0.00 | 0.00 | 0.00 | 54 | 1003.8 |
| 20260505030010 | 51 | 199 | 5.2 | 8.7 | 0.00 | 0.00 | 0.00 | 54 | 1003.7 |
| 20260505024607 | 52 | 180 | 4.3 | 9.6 | 0.00 | 0.00 | 0.00 | 52 | 1003.6 |
| 20260505023102 | 52 | 206 | 6.1 | 13.0 | 0.00 | 0.00 | 0.00 | 50 | 1003.3 |
| 20260505021558 | 53 | 175 | 5.2 | 11.3 | 0.00 | 0.00 | 0.00 | 48 | 1003.4 |
| 20260505020057 | 53 | 359 | 5.2 | 11.3 | 0.00 | 0.00 | 0.00 | 46 | 1003.4 |
| 20260505014557 | 54 | 359 | 5.2 | 10.4 | 0.00 | 0.00 | 0.00 | 43 | 1003.7 |
| 20260505013121 | 54 | 216 | 6.1 | 11.3 | 0.00 | 0.00 | 0.00 | 41 | 1003.5 |
| 20260505011609 | 55 | 204 | 4.3 | 11.3 | 0.00 | 0.00 | 0.00 | 40 | 1003.4 |
| 20260505010110 | 55 | 174 | 7.0 | 12.2 | 0.00 | 0.00 | 0.00 | 38 | 1003.5 |
| 20260505004555 | 56 | 191 | 7.0 | 11.3 | 0.00 | 0.00 | 0.00 | 37 | 1003.5 |
| 20260505003043 | 56 | 170 | 5.2 | 9.6 | 0.00 | 0.00 | 0.00 | 37 | 1003.0 |
| 20260505001543 | 56 | 212 | 4.3 | 13.0 | 0.00 | 0.00 | 0.00 | 42 | 1003.4 |
| 20260505000054 | 57 | 156 | 7.0 | 13.9 | 0.00 | 0.00 | 0.00 | 39 | 1003.4 |
| 20260504234542 | 58 | 201 | 7.8 | 15.6 | 0.00 | 0.00 | 0.00 | 39 | 1003.5 |
| 20260504233044 | 58 | 222 | 7.0 | 13.9 | 0.00 | 0.00 | 0.00 | 36 | 1003.8 |
| 20260504231543 | 59 | 168 | 6.1 | 17.4 | 0.00 | 0.00 | 0.00 | 36 | 1003.5 |
| 20260504230041 | 60 | 359 | 7.8 | 13.9 | 0.00 | 0.00 | 0.00 | 32 | 1003.3 |
| 20260504224540 | 61 | 191 | 7.8 | 15.6 | 0.00 | 0.00 | 0.00 | 30 | 1003.4 |